Location: Dead Woman Crossing
(43.5369°N, 106.3228°W)
Time: 14:49:02
(UTC+00:00)

ITUPSAT 1 - Pass Details

Date: 30 June 2022
Orbit: 701 x 711 km, 98.6° (Epoch: 13 August)

Event Time Altitude Azimuth Distance (km) Brightness Sun altitude
Rises 03:38:35 0° 12° (NNE) 3,109 ? -7.7°
Reaches altitude 10° 03:40:51 10° 12° (NNE) 2,188 ? -8.0°
Maximum altitude 03:45:39 83° 286° (WNW) 719 ? -8.6°
Drops below altitude 10° 03:50:26 10° 198° (SSW) 2,177 ? -9.2°
Sets 03:52:41 0° 198° (SSW) 3,093 ? -9.5°
